Weather History for Hyannis, MA

Change the Weather History Date:

Friday, February 1, 2013

  Actual Average Record
Temperature  
Mean Temperature 29 °F -  
Max Temperature 33 °F 37 °F 53 °F (2002)
Min Temperature 24 °F 21 °F 2 °F (1961)
Degree Days  
Heating Degree Days 36    
Moisture  
Dew Point 9 °F    
Average Humidity 42    
Maximum Humidity 54    
Minimum Humidity 34    
Precipitation  
Precipitation 0.00 in - - ()
Sea Level Pressure  
Sea Level Pressure 29.82 in    
Wind  
Wind Speed 14 mph (West)    
Max Wind Speed 21 mph    
Max Gust Speed 30 mph    
Visibility 10 miles    
Events      
Averages and records for this station are not official NWS values.
T = Trace of Precipitation, MM = Missing Value Source: NWS Daily Summary

Daily Weather History Graph

Daily Weather History Graph

Search for Another Location

Airport:

Trip Planner

Search our weather history database for the weather conditions in past years. The results will help you decide how hot, cold, wet, or windy it might be!

Date:

Astronomy

Feb. 01, 2013 Rise Set
Actual Time 6:52 AM EST 4:57 PM EST
Civil Twilight 6:23 AM EST 5:26 PM EST
Nautical Twilight 5:50 AM EST 5:59 PM EST
Astronomical Twilight 5:17 AM EST 6:32 PM EST
Moon 11:06 PM EST (2/1) 9:18 AM EST (2/1)
Length of Visible Light 11h 02m
Length of Day
10h 04m
Waning Gibbous, 70% of the Moon is Illuminated
Feb 1
Waning Gibbous
Feb 3
Last Quarter
Feb 10
New
Feb 17
First Quarter
Feb 25
Full

Hourly Weather History & Observations

Time (EST) Temp. Windchill Dew Point Humidity Pressure Visibility Wind Dir Wind Speed Gust Speed Precip Events Conditions
1:56 AM 32.0 °F 21.2 °F 10.9 °F 42% 29.64 in 10.0 mi West 16.1 mph 24.2 mph N/A   Clear
2:56 AM 30.9 °F 19.4 °F 15.1 °F 52% 29.66 in 10.0 mi West 17.3 mph 24.2 mph N/A   Clear
3:56 AM 30.0 °F 18.7 °F 15.1 °F 54% 29.68 in 10.0 mi West 16.1 mph 26.5 mph N/A   Clear
4:56 AM 28.9 °F 16.5 °F 12.0 °F 49% 29.70 in 10.0 mi West 18.4 mph 24.2 mph N/A   Clear
5:56 AM 28.9 °F 18.2 °F 10.0 °F 45% 29.72 in 10.0 mi West 13.8 mph 25.3 mph N/A   Clear
6:56 AM 28.0 °F 15.7 °F 10.0 °F 47% 29.75 in 10.0 mi West 17.3 mph 24.2 mph N/A   Clear
7:56 AM 30.0 °F 18.3 °F 10.0 °F 43% 29.78 in 10.0 mi West 17.3 mph 28.8 mph N/A   Clear
8:56 AM 32.0 °F 19.8 °F 9.0 °F 38% 29.78 in 10.0 mi West 20.7 mph 29.9 mph N/A   Clear
9:56 AM 32.0 °F 21.2 °F 9.0 °F 38% 29.78 in 10.0 mi West 16.1 mph 26.5 mph N/A   Clear
10:56 AM 32.0 °F 22.5 °F 9.0 °F 38% 29.79 in 10.0 mi West 12.7 mph - N/A   Clear
11:56 AM 33.1 °F 26.1 °F 10.0 °F 38% 29.76 in 10.0 mi WNW 8.1 mph - N/A   Partly Cloudy
12:56 PM 32.0 °F 23.0 °F 10.9 °F 42% 29.75 in 10.0 mi NW 11.5 mph 18.4 mph N/A   Mostly Cloudy
1:56 PM 32.0 °F 25.6 °F 9.0 °F 38% 29.75 in 10.0 mi WNW 6.9 mph - N/A   Overcast
2:56 PM 32.0 °F 24.8 °F 9.0 °F 38% 29.77 in 10.0 mi NW 8.1 mph - N/A   Overcast
3:56 PM 32.0 °F 23.0 °F 6.1 °F 34% 29.78 in 10.0 mi West 11.5 mph - N/A   Overcast
4:56 PM 30.9 °F 26.2 °F 7.0 °F 37% 29.82 in 10.0 mi WNW 4.6 mph - N/A   Overcast
5:56 PM 30.0 °F 20.5 °F 7.0 °F 38% 29.88 in 10.0 mi WNW 11.5 mph 19.6 mph N/A   Overcast
6:56 PM 28.9 °F 21.9 °F 6.1 °F 38% 29.92 in 10.0 mi WNW 6.9 mph - N/A   Partly Cloudy
7:56 PM 28.0 °F 19.3 °F 7.0 °F 41% 29.96 in 10.0 mi West 9.2 mph - N/A   Mostly Cloudy
8:56 PM 27.0 °F 18.0 °F 7.0 °F 43% 29.99 in 10.0 mi West 9.2 mph - N/A   Clear
9:56 PM 26.1 °F 17.6 °F 8.1 °F 47% 30.02 in 10.0 mi West 8.1 mph - N/A   Clear
10:56 PM 25.0 °F 14.8 °F 7.0 °F 46% 30.04 in 10.0 mi WNW 10.4 mph - N/A   Clear
11:56 PM 24.1 °F 15.2 °F 5.0 °F 44% 30.08 in 10.0 mi WNW 8.1 mph - N/A   Clear